Location: Certers
(42.4746°N, 1.5061°E)
Time: 00:29:02
(UTC+00:00)

USA 267 - Pass Details

Date: 08 August 2025
Orbit: 1101 x 1107 km, 123.0° (Epoch: 10 January)

Event Time Altitude Azimuth Distance (km) Brightness Sun altitude
Exits shadow 19:55:07 - 95° (E) 3,219 5.2 -9.1°
Reaches altitude 10° 19:55:49 10° 93° (E) 2,965 5.0 -9.2°
Maximum altitude 20:01:52 41° 26° (NNE) 1,547 4.1 -10.1°
Drops below altitude 10° 20:07:55 10° 319° (NW) 2,974 6.9 -11.1°
Sets 20:10:32 0° 312° (NW) 3,934 8.2 -11.5°
